RH
47 49 50 50 48 47 43 38 32 31 31 31 30 28 28 28 28 27 26 23 21 18 17 16 15 14 18 34 26 29 22 16 22 39 23 20 48 66 69 75 71 65 58
50 50 50 49 48 46 44 37 32 31 31 31 31 30 29 29 27 26 24 22 21 20 20 19 17 14 19 36 22 18 18 14 15 18 18 16 18 29 51 73 78 75 68
50 50 50 49 47 46 45 41 32 33 34 33 31 30 29 29 28 27 26 24 25 24 23 21 19 17 46 65 14 17 15 17 19 18 18 17 19 26 36 48 75 77 72
49 49 50 48 46 45 45 44 34 34 36 35 33 31 31 30 29 29 28 28 27 26 24 23 22 20 18 21 17 36 22 22 25 22 19 17 20 24 38 65 63 72 70
48 50 50 47 44 44 46 46 41 37 38 38 34 32 32 31 31 30 30 29 27 25 24 24 23 21 19 19 28 42 22 21 24 20 19 22 25 28 33 38 56 68 76
48 50 50 46 43 44 46 48 47 39 41 44 36 34 34 33 35 34 31 28 25 26 24 23 22 22 21 20 25 19 19 19 19 21 20 27 24 22 32 37 37 40 59
46 46 44 45 44 46 50 52 50 45 46 50 35 37 36 38 39 33 34 35 36 37 35 26 22 20 20 21 20 20 19 20 22 22 22 27 31 25 22 30 35 34 41
55 56 59 64 66 65 60 59 54 61 54 48 38 40 40 41 38 37 42 47 46 46 42 35 31 28 24 21 22 22 36 24 25 25 25 29 29 32 23 21 22 27 31
64 74 83 84 89 90 78 74 64 62 66 58 45 46 45 42 40 41 48 51 48 55 57 53 42 35 30 26 23 22 24 23 31 31 29 31 29 34 26 23 23 25 25
84 98 85 91 97 99 98 88 75 77 63 65 62 50 45 42 42 44 46 50 52 54 56 51 38 37 34 30 27 26 29 29 32 38 37 27 24 33 26 24 26 27 26
98 90 97 98 100 99 100 100 100 100 96 90 78 59 59 65 58 54 53 54 53 57 58 41 29 30 31 31 29 29 29 36 35 45 37 31 32 34 26 27 29 28 29
98 98 99 98 100 100 98 95 94 93 100 100 98 97 90 76 71 56 55 55 57 60 60 28 27 27 28 29 31 32 32 37 46 53 45 37 34 37 28 34 31 30 36
99 100 93 98 88 87 93 85 92 89 89 86 88 92 90 78 80 61 59 62 66 69 66 40 39 36 33 31 31 33 35 40 52 90 88 55 41 34 33 37 36 34 32
96 95 99 100 97 98 90 100 97 92 94 84 83 84 80 73 61 56 62 64 65 50 42 41 39 38 40 40 38 38 38 40 54 51 66 64 42 33 38 42 37 30 30
74 81 92 96 98 98 98 98 96 89 86 87 87 81 74 68 62 64 60 54 46 43 42 36 34 40 42 44 45 46 44 46 78 45 53 50 50 45 46 39 35 31 34
73 75 78 85 85 90 93 100 99 92 94 85 75 77 87 89 82 67 53 44 42 40 36 36 37 38 42 45 49 51 51 50 47 41 50 54 44 50 42 38 34 37 38
78 81 83 87 88 93 98 92 92 95 88 85 88 88 78 74 71 52 42 40 40 40 38 36 37 40 42 45 50 53 53 52 46 39 43 49 48 50 41 36 36 40 40
82 83 84 85 86 90 89 90 98 87 83 92 85 72 72 62 49 43 42 42 44 44 41 40 42 42 42 46 51 56 56 53 50 49 51 45 58 16 18 35 26 19 24
60 62 60 64 76 85 88 89 88 87 92 86 72 69 59 46 44 43 41 39 37 38 41 44 44 43 43 48 53 55 54 52 54 56 52 61 50 10 11 14 13 13 11
37 46 56 57 68 77 82 86 85 83 85 72 74 60 47 44 37 32 32 32 33 34 38 44 45 44 47 53 56 56 56 55 50 56 51 57 34 16 21 23 26 25 24
34 43 46 48 57 74 80 81 80 80 85 68 61 49 46 37 36 35 34 36 37 40 43 46 46 48 54 59 58 54 54 63 64 21 16 22 28 31 30 29 29 28 26
40 41 45 46 51 64 80 86 87 86 85 70 48 46 42 42 42 45 44 42 43 50 49 48 52 55 60 65 69 68 39 18 25 31 33 33 33 33 31 30 28 26 25
44 44 45 48 53 60 72 86 89 90 72 58 50 45 49 52 50 44 41 45 52 54 56 58 55 52 63 52 25 32 49 56 51 46 44 44 43 41 36 31 28 24 23
60 57 54 62 68 74 84 91 84 71 64 55 51 57 58 56 49 46 50 56 55 58 63 56 26 25 28 32 43 51 48 54 52 52 59 60 55 54 51 46 40 31 25
72 67 66 70 69 78 83 81 72 68 61 57 61 62 60 49 42 52 54 54 62 67 59 29 27 42 54 56 56 50 48 61 64 66 74 82 78 70 56 50 46 37 29
82 79 79 82 87 87 82 77 80 72 60 61 63 65 61 45 45 60 61 64 68 61 35 25 40 49 55 53 53 59 56 49 68 76 59 70 82 93 79 61 52 49 45
Wind_Speed
23 20 17 15 12 11 10 9 9 8 7 7 7 6 7 7 9 10 11 12 13 13 14 15 16 15 15 16 17 15 17 17 17 17 16 16 15 14 14 14 13 14 14
23 20 17 16 14 13 12 11 10 9 8 8 8 8 8 9 10 12 13 14 14 15 15 17 17 17 15 17 17 18 20 20 19 19 19 18 18 17 16 16 15 15 15
25 22 20 18 17 16 15 14 13 11 11 10 10 10 10 10 11 12 13 13 15 16 16 17 17 18 16 17 19 20 21 20 20 22 22 21 20 19 18 17 16 17 17
25 24 22 20 19 18 17 17 16 15 13 12 12 11 12 13 13 12 13 14 15 16 17 16 17 17 18 20 20 18 20 21 22 23 23 22 22 22 18 17 18 18 18
26 24 23 22 22 21 20 20 20 18 17 15 14 14 15 13 13 13 15 15 17 18 19 19 19 19 19 19 19 19 23 22 22 23 25 24 22 22 20 20 19 18 18
27 26 26 25 26 25 23 23 23 23 20 17 16 16 16 15 14 15 15 16 17 18 20 21 21 21 21 21 22 25 25 23 23 22 25 25 22 20 20 20 21 22 22
29 30 29 28 29 29 27 28 27 26 22 20 19 18 17 16 14 13 13 15 17 19 21 22 22 23 22 24 25 26 26 26 25 24 23 25 24 20 19 20 20 21 22
28 31 31 30 32 33 32 31 30 27 25 24 22 20 19 17 16 15 15 16 19 22 25 26 25 25 25 24 25 26 27 28 27 28 24 23 24 21 20 19 20 20 21
35 35 35 32 31 31 34 31 31 30 27 26 21 19 18 19 20 20 19 20 23 27 32 32 31 30 28 28 28 28 28 29 29 30 26 25 23 22 21 19 19 19 20
38 37 42 39 39 32 30 32 32 29 26 24 25 20 16 18 23 25 27 26 29 32 36 34 32 31 30 29 29 30 29 30 30 29 29 24 23 22 21 20 21 22 23
30 55 51 37 29 36 32 36 37 27 34 27 26 20 17 22 28 31 31 34 33 35 38 35 31 29 29 29 29 30 30 29 30 29 30 23 22 23 23 24 24 23 21
28 28 28 42 20 28 28 12 21 20 31 47 40 41 35 29 34 36 37 37 39 40 37 33 30 29 29 29 29 30 30 30 30 32 29 25 22 23 24 25 26 24 22
19 19 18 11 17 16 14 15 18 15 15 16 19 19 24 32 38 38 40 43 46 44 37 31 29 30 29 29 29 30 30 29 28 29 33 30 23 23 24 25 24 23 22
17 16 16 17 17 13 17 18 20 19 20 21 22 24 30 35 37 40 45 43 33 28 27 28 28 29 30 31 30 32 30 30 28 30 34 31 26 23 23 22 22 22 19
17 16 17 17 17 18 19 23 20 18 19 23 26 30 35 39 40 40 32 32 31 31 32 33 30 29 30 30 30 30 32 31 31 31 30 29 26 22 20 19 19 17 16
23 22 21 18 18 19 19 20 21 21 22 24 26 29 30 30 31 32 31 30 30 31 32 31 30 30 30 31 30 29 30 30 32 30 28 28 23 20 18 16 17 16 17
26 25 24 24 22 22 21 21 22 22 23 28 32 31 30 32 32 29 28 29 29 30 30 31 31 31 31 31 30 28 26 27 29 29 27 23 21 18 16 13 15 15 16
27 27 29 28 26 24 23 23 23 24 28 27 27 29 29 29 29 28 27 28 28 29 31 31 31 32 33 32 31 29 27 26 25 23 22 22 19 19 16 13 13 13 15
33 32 30 28 28 27 26 26 27 28 30 30 31 28 27 27 27 27 26 27 28 30 31 31 32 32 32 31 30 27 25 25 23 21 19 19 16 18 15 13 13 15 15
31 31 31 30 29 29 31 30 30 31 33 32 29 27 26 27 27 26 27 29 30 31 32 32 32 31 30 28 26 23 21 18 17 16 15 14 15 16 16 16 16 16 17
27 29 29 30 30 30 31 31 32 33 33 29 28 27 27 27 27 28 29 30 31 31 31 31 30 28 26 23 21 18 15 14 12 12 11 12 14 16 17 18 18 18 17
30 29 30 30 31 31 31 33 34 33 32 29 27 26 27 28 29 29 30 30 29 29 28 27 25 23 21 17 15 12 9 8 9 10 12 14 17 19 17 16 16 16 16
32 31 31 31 31 31 31 31 30 30 29 28 26 26 28 29 29 29 29 28 28 26 24 22 20 16 12 10 8 6 5 6 7 9 11 11 13 14 14 14 14 14 14
30 30 30 31 31 31 30 29 28 28 27 27 26 27 28 29 30 29 27 26 25 23 20 18 14 12 9 9 10 9 8 7 7 7 7 10 12 11 12 13 13 14 15
31 29 30 31 31 31 29 28 28 28 28 28 27 28 29 29 28 27 25 24 22 20 17 15 13 11 9 11 9 9 11 10 12 11 13 14 15 13 14 15 15 16 16
32 32 31 31 31 30 30 29 29 30 29 30 30 29 29 28 27 25 23 22 21 19 17 16 16 14 11 11 10 9 11 10 10 12 11 12 15 14 12 14 14 16 16
Wind_Direction
175 181 191 199 209 220 231 237 241 245 249 255 263 276 292 300 303 307 311 311 310 312 313 314 314 309 301 303 308 305 305 304 301 295 302 296 290 284 280 278 280 280 280
189 196 206 215 222 231 238 241 243 245 251 259 266 275 284 294 303 306 308 310 312 312 312 311 310 311 306 300 305 303 301 307 302 298 298 293 285 280 277 274 273 277 279
200 207 216 225 235 240 242 243 244 245 255 266 276 283 290 295 297 301 304 306 308 306 306 305 311 312 306 298 310 307 304 300 297 297 298 292 284 280 274 269 270 273 279
213 217 222 230 238 243 246 247 246 247 254 263 271 277 283 287 291 292 295 296 298 301 305 306 304 303 301 301 308 300 302 298 295 293 292 290 288 280 272 268 267 267 268
225 229 235 239 245 246 247 249 247 247 252 261 269 272 276 281 289 293 298 304 307 309 309 307 305 304 301 297 294 289 295 294 292 292 295 292 289 283 275 263 254 261 259
236 242 246 250 252 253 252 252 247 246 249 257 261 264 273 282 291 298 308 311 314 314 312 308 305 301 298 296 295 297 299 294 291 290 293 291 292 284 272 268 259 250 252
237 240 246 252 255 254 251 249 246 243 245 250 252 257 264 272 282 288 299 307 313 313 312 308 305 303 301 298 296 297 296 297 298 292 293 291 287 284 279 269 264 259 253
240 245 249 251 254 255 250 246 244 241 242 244 245 252 257 265 268 274 285 298 310 315 315 310 305 301 296 295 296 296 291 297 295 301 298 295 287 285 281 275 269 262 257
241 240 244 248 254 256 249 242 239 233 235 240 243 252 263 273 277 279 287 295 300 311 314 306 301 300 300 297 295 292 292 296 297 297 297 296 288 288 285 276 269 264 259
242 242 241 240 255 241 230 229 230 229 228 235 241 245 259 273 285 288 288 290 296 305 314 304 298 296 295 294 294 294 293 291 294 295 298 294 291 279 276 270 265 266 265
246 254 249 239 248 250 246 248 234 229 233 234 242 249 276 292 289 289 289 293 294 301 310 302 300 296 295 294 294 294 295 294 293 294 294 294 288 278 273 270 270 267 267
252 260 257 240 272 237 243 273 270 275 257 250 239 245 257 283 284 285 287 290 296 298 305 296 298 298 297 295 293 292 290 290 288 287 287 289 278 273 274 272 273 274 270
265 261 288 257 285 305 251 287 267 265 276 284 269 266 259 263 278 285 291 295 294 293 294 290 295 296 296 294 291 288 286 281 278 280 279 289 276 273 272 271 272 268 264
260 266 262 255 247 258 271 254 267 261 265 266 266 269 269 276 281 286 290 296 296 295 291 291 292 291 290 291 287 283 281 282 273 277 275 284 276 271 272 272 269 265 258
274 272 266 262 256 242 255 261 262 263 269 272 274 275 277 279 279 287 283 288 290 293 292 294 294 292 290 289 288 288 285 281 275 279 272 275 267 271 268 266 262 255 248
273 271 269 266 266 261 258 261 258 263 268 270 272 277 284 287 280 283 288 287 288 291 293 297 298 296 293 290 287 285 282 279 279 278 275 275 269 270 268 260 252 250 250
268 267 264 266 268 258 256 257 259 264 268 272 277 277 285 287 286 285 286 286 289 291 293 293 294 295 294 293 289 283 278 280 279 277 277 272 267 261 260 256 252 252 251
265 265 264 264 262 259 257 259 268 263 267 280 279 284 286 284 283 282 284 286 288 290 291 292 294 295 294 291 289 286 280 277 275 275 277 271 268 256 250 247 249 252 246
265 264 263 261 257 256 254 257 263 268 276 281 285 285 283 283 283 284 285 286 287 288 290 292 293 292 291 290 285 281 278 277 276 273 271 268 253 257 253 251 251 251 252
260 259 257 257 256 256 256 257 261 269 277 283 284 282 282 283 283 285 285 286 288 289 290 290 291 291 289 286 282 277 271 270 269 266 263 260 257 258 261 259 259 257 254
262 254 256 255 254 253 253 255 261 267 272 276 277 280 282 283 285 287 286 286 287 288 289 290 290 290 286 283 277 270 266 262 254 251 259 263 268 274 270 264 259 257 252
259 255 252 251 250 251 253 255 259 263 267 270 272 277 281 284 284 284 286 287 287 288 288 288 288 286 280 272 267 261 257 259 262 261 259 263 256 261 266 263 261 257 253
255 254 253 252 250 249 249 251 255 260 264 268 271 276 282 285 286 286 284 284 283 283 285 286 283 279 269 253 243 240 249 259 272 279 282 292 281 275 271 266 262 261 258
254 253 251 249 249 249 250 252 255 257 261 265 271 278 281 286 287 285 282 281 281 280 281 276 268 254 242 242 246 250 247 269 276 269 270 275 287 282 280 278 274 268 257
254 251 248 247 247 248 250 251 253 256 259 265 272 279 284 286 285 282 280 278 277 276 271 260 245 222 245 258 257 268 259 248 260 263 265 275 268 277 283 273 263 257 253
252 249 246 244 244 245 247 250 253 255 258 264 270 277 283 287 283 280 278 277 272 267 259 248 236 234 242 253 241 242 250 244 268 283 270 275 292 268 280 281 269 259 252